Marrakech, Morocco

1:26 PM WEST on October 18, 2017 (GMT +0100)
Marrakech

Weather History for GMMX - January, 2013

Change the Weather History Date:

Thursday, January 24, 2013

  Actual Average Record
Temperature  
Mean Temperature 54 °F -  
Max Temperature 69 °F 66 °F 79 °F (2016)
Min Temperature 39 °F 44 °F 37 °F (2017)
Degree Days  
Heating Degree Days 11    
Growing Degree Days 4 (Base 50)    
Moisture  
Dew Point 39 °F    
Average Humidity 61    
Maximum Humidity 93    
Minimum Humidity 22    
Precipitation  
Precipitation 0.00 in 0.05 in - ()
Sea Level Pressure  
Sea Level Pressure 30.31 in    
Wind  
Wind Speed 3 mph ()    
Max Wind Speed 9 mph    
Max Gust Speed -    
Visibility 4.5 miles    
Events      
Averages and records for this station are not official NWS values.
T = Trace of Precipitation, MM = Missing Value Source: Averaged Metar Reports

Daily Weather History Graph

Daily Weather History Graph

Search for Another Location

Airport or City:

Trip Planner

Search our weather history database for the weather conditions in past years. The results will help you decide how hot, cold, wet, or windy it might be!

Date:

Astronomy

Jan. 24, 2013 Rise Set
Actual Time 7:29 AM WET 5:59 PM WET
Civil Twilight 7:03 AM WET 6:25 PM WET
Nautical Twilight 6:33 AM WET 6:54 PM WET
Astronomical Twilight 6:04 AM WET 7:23 PM WET
Moon 3:51 PM WET (1/24) 5:14 AM WET (1/24)
Length of Visible Light 11h 21m
Length of Day
10h 30m
Waxing Gibbous, 93% of the Moon is Illuminated
Jan 24
Waxing Gibbous
Jan 27
Full
Feb 3
Last Quarter
Feb 10
New
Feb 17
First Quarter

Hourly Weather History & Observations

Time (WET) Temp. Windchill Dew Point Humidity Pressure Visibility Wind Dir Wind Speed Gust Speed Precip Events Conditions
12:00 AM 45 °F - 40 °F 75% 30.33 in 4 mi East 3.5 mph - -  
12:00 AM 46.4 °F 45.2 °F 41.0 °F 81% 30.27 in 4.3 mi East 3.5 mph - N/A   Unknown
1:30 AM 42.8 °F - 39.2 °F 87% 30.30 in 4.3 mi NNE 1.2 mph - N/A   Unknown
2:00 AM 42.8 °F 41.1 °F 39.2 °F 87% 30.30 in 3.7 mi NW 3.5 mph - N/A   Unknown
2:30 AM 42.8 °F - 41.0 °F 93% 30.33 in 3.7 mi Variable 2.3 mph - N/A   Unknown
3:00 AM 43 °F - 41 °F 88% 30.38 in 4 mi East 2.3 mph - -  
3:00 AM 42.8 °F - 41.0 °F 93% 30.33 in 3.7 mi ENE 2.3 mph - N/A   Unknown
3:30 AM 44.6 °F 41.4 °F 41.0 °F 87% 30.33 in 3.7 mi ESE 5.8 mph - N/A   Unknown
4:00 AM 44.6 °F 40.2 °F 41.0 °F 87% 30.33 in 3.7 mi SSE 8.1 mph - N/A   Unknown
4:30 AM 44.6 °F 39.7 °F 41.0 °F 87% 30.30 in 4.3 mi SE 9.2 mph - N/A   Unknown
5:00 AM 42.8 °F 40.1 °F 39.2 °F 87% 30.30 in 4.3 mi NE 4.6 mph - N/A   Unknown
5:30 AM 42.8 °F 41.1 °F 41.0 °F 93% 30.30 in 4.3 mi North 3.5 mph - N/A   Unknown
6:00 AM 42 °F - 39 °F 87% 30.35 in 4 mi NNE 4.6 mph - -  
6:00 AM 41.0 °F 38.0 °F 39.2 °F 93% 30.30 in 3.7 mi NNE 4.6 mph - N/A   Unknown
6:30 AM 39.2 °F 35.9 °F 37.4 °F 93% 30.30 in 3.7 mi East 4.6 mph - N/A   Unknown
7:00 AM 39.2 °F - 37.4 °F 93% 30.30 in 3.7 mi East 2.3 mph - N/A   Unknown
7:30 AM 41.0 °F 38.0 °F 39.2 °F 93% 30.30 in 3.7 mi SE 4.6 mph - N/A   Unknown
8:00 AM 41.0 °F 38.0 °F 39.2 °F 93% 30.33 in 3.7 mi SE 4.6 mph - N/A   Unknown
8:30 AM 48.2 °F - 41.0 °F 76% 30.33 in 4.3 mi South 3.5 mph - N/A   Unknown
9:00 AM 51 °F - 42 °F 63% 30.36 in 5 mi South 4.6 mph - -   Clear
9:00 AM 50.0 °F - 42.8 °F 76% 30.33 in 5.0 mi South 4.6 mph - N/A   Unknown
9:30 AM 55.4 °F - 44.6 °F 67% 30.36 in 5.0 mi Variable 1.2 mph - N/A   Unknown
10:00 AM 59.0 °F - 42.8 °F 55% 30.36 in 5.0 mi Calm Calm - N/A   Unknown
10:30 AM 59.0 °F - 42.8 °F 55% 30.36 in 5.6 mi Calm Calm - N/A   Unknown
11:00 AM 59.0 °F - 42.8 °F 55% 30.36 in 5.0 mi East 5.8 mph - N/A   Unknown
11:30 AM 60.8 °F - 42.8 °F 52% 30.36 in 5.6 mi East 5.8 mph - N/A   Unknown
12:00 PM 62 °F - 42 °F 35% 30.35 in 6 mi ENE 5.8 mph - -   Clear
12:00 PM 60.8 °F - 41.0 °F 48% 30.36 in 5.6 mi East 5.8 mph - N/A   Unknown
12:30 PM 62.6 °F - 41.0 °F 45% 30.36 in - NE 5.8 mph - N/A   Clear
1:00 PM 64.4 °F - 42.8 °F 45% 30.33 in - ENE 3.5 mph - N/A   Clear
1:30 PM 64.4 °F - 39.2 °F 40% 30.30 in 5.6 mi Variable 5.8 mph - N/A   Unknown
2:00 PM 66.2 °F - 41.0 °F 40% 30.30 in 5.6 mi Variable 3.5 mph - N/A   Unknown
2:30 PM 66.2 °F - 41.0 °F 40% 30.27 in 5.0 mi Variable 3.5 mph - N/A   Unknown
3:00 PM 67 °F - 37 °F 22% 30.24 in 6 mi ESE 3.5 mph - -   Clear
3:00 PM 66.2 °F - 37.4 °F 35% 30.27 in 5.6 mi East 3.5 mph - N/A   Unknown
3:30 PM 68.0 °F - 39.2 °F 35% 30.27 in 5.0 mi East 3.5 mph - N/A   Unknown
4:00 PM 68.0 °F - 35.6 °F 30% 30.27 in 5.0 mi Variable 3.5 mph - N/A   Unknown
4:30 PM 68.0 °F - 35.6 °F 30% 30.27 in 5.0 mi Variable 3.5 mph - N/A   Unknown
5:00 PM 66.2 °F - 35.6 °F 32% 30.27 in 5.0 mi North 5.8 mph - N/A   Unknown
5:30 PM 69.8 °F - 37.4 °F 31% 30.27 in 5.6 mi Variable 1.2 mph - N/A   Unknown
6:00 PM 64 °F - 37 °F 25% 30.26 in 5 mi North 2.3 mph - -   Clear
6:00 PM 64.4 °F - 37.4 °F 37% 30.27 in 5.0 mi Variable 2.3 mph - N/A   Unknown
6:30 PM 60.8 °F - 39.2 °F 45% 30.27 in 4.3 mi WSW 2.3 mph - N/A   Unknown
7:00 PM 57.2 °F - 35.6 °F 44% 30.27 in 5.0 mi NE 3.5 mph - N/A   Unknown
7:30 PM 57.2 °F - 32.0 °F 38% 30.27 in 4.3 mi North 3.5 mph - N/A   Unknown
8:00 PM 55.4 °F - 33.8 °F 44% 30.30 in 4.3 mi North 3.5 mph - N/A   Unknown
8:30 PM 55.4 °F - 33.8 °F 44% 30.30 in 4.3 mi Variable 2.3 mph - N/A   Unknown
9:00 PM 51 °F - 36 °F 44% 30.33 in 4 mi East 3.5 mph - -   Clear
9:00 PM 51.8 °F - 35.6 °F 54% 30.30 in 3.7 mi East 3.5 mph - N/A   Unknown
9:30 PM 50.0 °F - 35.6 °F 58% 30.30 in 3.7 mi ENE 3.5 mph - N/A   Unknown
10:00 PM 50.0 °F - 35.6 °F 58% 30.33 in 3.1 mi East 3.5 mph - N/A   Unknown
10:30 PM 50.0 °F - 35.6 °F 58% 30.33 in 3.1 mi NNE 2.3 mph - N/A   Unknown
11:00 PM 50.0 °F - 37.4 °F 62% 30.33 in 3.1 mi ESE 2.3 mph - N/A   Unknown
11:30 PM 48.2 °F - 37.4 °F 66% 30.33 in 3.1 mi Variable 1.2 mph - N/A   Unknown